Starlink 31890

operational
NORAD ID: 59785 Int'l Des: 2024-093 Owner: SPXS Country: US Constellation: starlink
LEOCIRCULAR

关于 Starlink 31890

正在加载描述...

实时位置

正在加载3D地球...

即将过境

高度历史

Altitude vs Time

uPlot chart will show altitude changes over time

两行轨道根数

1 59785U 24093D 25307.41898855 -.00000918 00000-0 -23856-4 0 9995
2 59785 42.9990 198.5749 0000478 75.8304 284.2601 15.27575153 83429
Epoch: Nov 3, 2025 • Age: 38 hours

当前状态

高度 486.5 km
速度 7.62 km/s
星下点 -16.43°S, 132.76°E
发射日期 May 18, 2024
运行时间 1.4 years
类型 internet

技术详情

分类 Payload
质量 730.00 kg
干质量 700.00 kg
总质量 730.00 kg
长度 0.30 m
直径 4.10 m
跨度 29.00 m
形状 Box + pan
制造商 SPXS
平台类型 Starlink V2M
阶段状态 In Orbit
所有者/国家 SPXS/US

大型星座

Loading constellations...